Regional Weather Roundup
Issued by NWS

Home | Current Version | Previous Version | Graphics & Text | Print | Product List | Glossary On
Versions: 1 2 3 4 5 6 7 8 9 10 11 12 13 14 15 16 17 18 19 20 21 22 23 24 25 26 27 28
000
ASUS45 KPSR 281510
RWRAZ

ARIZONA HOURLY REGIONAL WEATHER ROUNDUP
NATIONAL WEATHER SERVICE PHOENIX AZ
800 AM MST THU JUL 28 2016

NOTE: FAIR INDICATES FEW OR NO CLOUDS BELOW 12,000 FEET WITH NO
SIGNIFICANT WEATHER AND/OR OBSTRUCTIONS TO VISIBILITY.

AZZ001>003-036-281600-
NORTHWEST ARIZONA

CITY           SKY/WX    TMP DP  RH WIND       PRES   REMARKS
BULLHEAD CITY  PTSUNNY   97  55  24 S5        29.79R
KINGMAN        MOSUNNY   92  50  23 S6        30.02R
$$

AZZ004>008-015-016-018-281600-
NORTH CENTRAL ARIZONA

CITY           SKY/WX    TMP DP  RH WIND       PRES   REMARKS
GRAND CANYON   SUNNY     77  44  30 S5        30.31S
WILLIAMS       MOSUNNY   73  52  46 SE6       30.40R
PRESCOTT       SUNNY     78  55  44 SE10      30.20R
FLAGSTAFF      SUNNY     70  53  54 SW14      30.36R
PAYSON         SUNNY     79  54  41 CALM      30.25R
PAGE           PTSUNNY   84  35  17 S8        30.07S
$$

AZZ009>014-017-281600-
NORTHEAST ARIZONA

CITY           SKY/WX    TMP DP  RH WIND       PRES   REMARKS
WINSLOW        SUNNY     84  54  35 SW7       30.17S
SAINT JOHNS    SUNNY     77  52  41 CALM      30.25R
WINDOW ROCK    SUNNY     73  48  41 CALM      30.34R
SHOW LOW       SUNNY     72  50  46 SW13      30.32R
$$

AZZ023-281600-
GREATER PHOENIX AREA

CITY           SKY/WX    TMP DP  RH WIND       PRES   REMARKS
PHOENIX        PTSUNNY   90  61  37 SE8       29.89R
BUCKEYE        SUNNY     93  59  31 E12       29.89S
GLENDALE       MOSUNNY   95  63  34 CALM      29.90S
DEER VALLEY    SUNNY     91  59  33 SE7       29.92S
SCOTTSDALE     SUNNY     91  60  35 CALM      29.94S
MESA-GATEWAY   MOSUNNY   88  63  42 MISG      29.93R
CHANDLER       SUNNY     90  63  40 VRB3      29.91R
$$

AZZ027-028-281600-
SOUTHWEST MARICOPA COUNTY AND PINAL COUNTY

CITY           SKY/WX    TMP DP  RH WIND       PRES   REMARKS
CASA GRANDE    MOSUNNY   88  63  42 NE5       29.94R
GILA BEND      MOSUNNY   98  56  24 SW8       29.84R
$$

AZZ503-504-507>509-281600-
SOUTHEAST ARIZONA

CITY           SKY/WX    TMP DP  RH WIND       PRES   REMARKS
TUCSON         SUNNY     82  67  60 SE6       30.01S
RYAN FIELD     SUNNY     81  70  69 E9        30.00R
NOGALES        SUNNY     75  66  73 CALM      30.10S
SIERRA VISTA   SUNNY     76  60  57 CALM      30.18S
DOUGLAS        SUNNY     77  64  64 N10       30.13S
SAFFORD        SUNNY     80  61  52 NW3       30.06R
$$

AZZ020-021-025-026-031-281600-
SOUTHWEST ARIZONA

CITY           SKY/WX    TMP DP  RH WIND       PRES   REMARKS
YUMA           PTSUNNY   93  64  38 SE29      29.81R
$$

CAZ031-033-041-043-047-048-061-281600-
SOUTHERN CALIFORNIA

CITY           SKY/WX    TMP DP  RH WIND       PRES   REMARKS
DOWNTOWN L.A.  SUNNY     73  64  73 W3        29.91R
L.A. AIRPORT   MOSUNNY   71  66  84 SW6       29.92R
SAN DIEGO      MOSUNNY   71  67  87 CALM      29.92R
BURBANK        SUNNY     73  61  65 SE3       29.92S
ONTARIO        MOSUNNY   76  55  48 SW5       29.93R
RIVERSIDE      SUNNY     77  51  40 CALM      29.93R
PALM SPRINGS   SUNNY     94  53  25 S3        29.79S
EL CENTRO NAS  MOSUNNY   92  70  48 E7        29.78R
IMPERIAL       SUNNY     92  72  51 SE12      29.76R
BLYTHE         MOSUNNY   92  64  39 SE12      29.79R
NEEDLES        MOSUNNY  102  54  20 CALM      29.81R HX 100
$$

NVZ020-UTZ003-281600-
SOUTHERN NEVADA-UTAH

CITY           SKY/WX    TMP DP  RH WIND       PRES   REMARKS
LAS VEGAS      MOSUNNY   96  46  18 SE3       29.85R
SALT LAKE CITY MOSUNNY   82  40  22 CALM      30.10R
$$

NMZ009-TXZ055-281600-
NEW MEXICO-WEST TEXAS

CITY           SKY/WX    TMP DP  RH WIND       PRES   REMARKS
ALBUQUERQUE    MOSUNNY   77  54  44 NW3       30.27R
EL PASO        MOSUNNY   83  58  42 N6        30.12R
$$


........................KEY........................
SKY/WX - SKY CONDITION/WEATHER
TMP    - TEMPERATURE IN FAHRENHEIT
DP     - DEW POINT IN FAHRENHEIT
RH     - RELATIVE HUMIDITY IN PERCENT
WIND   - DIRECTION AND SPEED IN MILES PER HOUR (MPH)
VRB    - VARIABLE WIND DIRECTION
PRES   - MEAN SEA LEVEL PRESSURE IN INCHES OF MERCURY
         F - FALLING PRESSURE   R - RISING PRESSURE
         S - STEADY PRESSURE
VSB    - VISIBILITY IN MILES
HX     - HEAT INDEX IN FAHRENHEIT
WCI    - WIND CHILL INDEX IN FAHRENHEIT
TC     - TEMPERATURE IN CELSIUS WHICH IS ALSO KNOWN AS
         TEMPERATURE IN CENTIGRADE
AFB    - AIR FORCE BASE
         LUKE AFB IS LUKE AIR FORCE BASE
         DAVIS-MONTHAN IS DAVIS-MONTHAN AIR FORCE BASE
NAS    - NAVAL AIR STATION
         EL CENTRO NAS IS EL CENTRO NAVAL AIR STATION
N/A    - NOT AVAILABLE





USA.gov is the U.S. government's official web portal to all federal, state and local government web resources and services.